Temp
6 6 6 6 6 7 7 7 7 7 7 7 7 7 6 6 6 6 7 7 7 7 7 7 7 7 6 6 5 5 5 6 5 5 5 4 5 5 5 5 5 6 7 6 5
6 6 6 6 6 6 6 7 6 6 7 7 6 6 6 7 7 7 7 7 7 6 6 6 7 6 6 5 4 4 4 4 4 4 4 3 4 4 4 5 5 5 6 6 6
6 6 6 6 6 6 7 7 7 7 7 7 7 7 7 7 6 6 6 6 6 7 7 7 7 6 6 5 4 3 4 3 3 3 3 3 3 4 4 4 5 5 5 6 6
6 6 6 6 6 6 6 7 7 7 6 6 6 6 6 6 6 6 6 6 6 6 6 6 6 6 5 5 4 3 3 3 3 3 3 3 3 3 3 4 3 3 4 5 6
6 6 6 6 6 7 7 7 7 7 6 6 6 6 6 6 6 5 5 6 6 6 6 5 5 5 5 4 4 3 3 2 2 2 2 2 3 3 2 2 3 2 2 3 5
6 6 6 7 7 7 7 7 6 6 6 6 6 6 5 5 5 5 5 6 5 5 5 5 5 5 5 4 4 3 3 2 2 1 1 1 2 2 2 1 2 2 3 3 4
6 6 6 6 6 6 6 6 6 6 6 6 5 5 4 4 5 4 4 5 5 4 4 4 4 4 3 3 2 2 2 2 1 0 1 -0 1 1 1 1 1 1 2 3 3
6 6 6 6 6 6 6 6 6 6 5 5 5 4 5 4 4 2 3 3 4 4 3 3 3 3 3 2 1 1 1 -0 -1 -1 -1 -1 0 0 -0 -0 0 0 1 2 3
6 6 6 6 6 6 6 6 6 5 5 5 4 4 4 3 2 3 3 3 3 3 3 3 2 2 1 1 1 -0 -3 -2 -2 -2 -2 -2 -2 -2 -2 -1 -1 -0 0 1 2
6 6 6 6 6 6 6 5 5 4 4 3 4 4 3 3 3 1 3 3 3 2 2 2 1 0 0 -1 -6 -6 -5 -4 -4 -4 -4 -4 -4 -4 -3 -3 -2 -1 -1 0 1
6 6 6 5 5 5 5 5 4 3 3 3 3 2 2 2 1 2 3 2 2 2 1 0 -0 -2 -4 -6 -5 -5 -5 -5 -5 -6 -6 -6 -7 -6 -6 -5 -4 -3 -2 -1 0
5 5 5 5 5 5 5 4 4 3 3 3 2 1 2 2 2 2 1 1 0 -0 -1 -1 -2 -5 -5 -5 -6 -6 -7 -7 -6 -8 -8 -9 -9 -8 -8 -7 -6 -5 -3 -2 -1
5 5 5 5 5 4 4 4 3 3 3 2 2 1 1 1 1 1 -0 -1 -2 -2 -3 -4 -6 -7 -7 -7 -8 -11 -11 -12 -12 -11 -10 -10 -10 -10 -10 -10 -10 -8 -7 -6 -4
5 4 4 4 4 4 4 4 3 2 2 1 1 1 0 -0 -0 -2 -1 -2 -3 -4 -5 -5 -7 -7 -8 -9 -10 -10 -10 -11 -11 -13 -12 -10 -11 -12 -12 -11 -10 -9 -8 -7 -5
4 4 4 4 4 3 3 3 3 2 -2 -0 -0 -1 -1 -0 -1 -1 -3 -3 -3 -4 -5 -7 -7 -8 -8 -10 -10 -11 -10 -9 -9 -11 -13 -11 -12 -14 -13 -12 -12 -11 -10 -9 -7
4 4 3 3 3 3 3 3 3 2 -1 -1 -1 -1 -1 -1 -1 -2 -3 -3 -4 -5 -6 -8 -9 -9 -10 -9 -9 -11 -10 -8 -9 -10 -12 -11 -11 -14 -14 -15 -13 -12 -12 -11 -10
4 3 3 3 3 3 3 3 3 2 -1 -1 -1 -1 -1 -2 -2 -3 -4 -3 -6 -7 -8 -8 -9 -10 -11 -10 -9 -9 -10 -12 -10 -11 -12 -13 -14 -14 -15 -15 -15 -14 -12 -12 -11
3 3 3 3 3 3 3 3 3 -1 -1 -1 -1 -2 -2 -3 -3 -4 -4 -6 -7 -8 -9 -10 -10 -11 -10 -12 -12 -11 -12 -13 -11 -11 -12 -14 -14 -16 -15 -15 -15 -15 -14 -13 -11
3 3 3 3 3 3 3 3 0 -0 -1 -1 -1 -2 -2 -3 -3 -5 -6 -7 -9 -9 -10 -10 -10 -11 -11 -11 -12 -11 -11 -11 -12 -12 -12 -15 -15 -15 -16 -15 -15 -15 -14 -13 -13
3 3 3 3 3 3 3 2 0 -0 -1 -1 -1 -2 -3 -4 -4 -4 -6 -9 -9 -10 -10 -11 -11 -11 -11 -11 -11 -11 -12 -12 -12 -13 -14 -14 -16 -16 -16 -16 -15 -15 -15 -14 -14
3 3 3 3 3 4 3 1 1 -0 -1 -1 -2 -3 -4 -4 -4 -5 -6 -9 -10 -10 -11 -11 -12 -11 -12 -13 -13 -12 -12 -12 -12 -13 -13 -14 -16 -16 -16 -16 -15 -15 -14 -15 -14
3 3 3 3 3 3 3 2 1 -0 -1 -1 -2 -3 -3 -4 -5 -6 -7 -8 -10 -11 -11 -12 -12 -12 -12 -12 -13 -13 -13 -13 -13 -14 -14 -15 -16 -15 -16 -16 -15 -15 -15 -15 -15
3 3 3 3 3 3 2 1 0 -1 -1 -2 -2 -3 -4 -4 -5 -6 -7 -8 -10 -11 -11 -12 -12 -12 -12 -13 -13 -13 -13 -13 -13 -14 -15 -16 -15 -15 -16 -16 -16 -16 -16 -15 -15
3 3 3 3 3 2 2 1 0 -0 -1 -2 -2 -3 -4 -4 -5 -6 -7 -9 -10 -10 -11 -11 -12 -12 -13 -13 -14 -14 -14 -14 -14 -14 -15 -15 -15 -14 -15 -16 -16 -16 -16 -16 -16
3 3 3 3 2 2 2 1 0 -1 -1 -2 -3 -4 -4 -5 -5 -6 -7 -8 -9 -10 -11 -12 -12 -12 -12 -13 -14 -14 -14 -14 -14 -14 -15 -15 -15 -15 -15 -16 -16 -16 -16 -16 -16
3 3 3 2 2 2 1 1 -0 -1 -2 -2 -3 -4 -4 -5 -6 -6 -7 -8 -9 -10 -11 -12 -12 -12 -12 -12 -13 -14 -14 -14 -14 -15 -15 -15 -15 -15 -15 -16 -16 -16 -16 -16 -16
2 2 2 2 2 1 1 1 -0 -1 -2 -2 -3 -4 -4 -5 -5 -6 -7 -8 -10 -10 -11 -12 -12 -13 -12 -13 -14 -14 -13 -14 -14 -14 -15 -15 -15 -15 -16 -16 -16 -16 -16 -17 -17
Height
3120 3120 3119 3118 3118 3119 3119 3119 3119 3120 3119 3119 3119 3118 3117 3116 3115 3114 3115 3114 3113 3112 3111 3110 3109 3108 3108 3107 3108 3108 3111 3111 3112 3112 3112 3114 3113 3115 3113 3112 3113 3113 3115 3113 3109
3121 3121 3120 3120 3120 3120 3120 3120 3120 3119 3118 3118 3118 3116 3115 3114 3115 3114 3114 3113 3112 3111 3110 3109 3108 3108 3107 3107 3106 3107 3108 3109 3110 3110 3110 3112 3109 3110 3111 3109 3112 3112 3113 3111 3110
3124 3123 3123 3122 3121 3121 3121 3120 3120 3119 3118 3118 3117 3117 3116 3115 3116 3114 3114 3113 3112 3110 3110 3109 3108 3107 3106 3105 3105 3105 3107 3108 3109 3108 3108 3109 3106 3105 3108 3107 3105 3107 3108 3109 3109
3125 3124 3123 3123 3122 3121 3120 3120 3119 3119 3119 3119 3118 3117 3116 3116 3118 3114 3113 3112 3111 3110 3109 3107 3106 3105 3104 3104 3103 3105 3105 3105 3106 3105 3105 3107 3104 3100 3101 3104 3103 3102 3103 3104 3105
3124 3124 3123 3122 3122 3121 3121 3121 3121 3120 3120 3120 3119 3118 3117 3116 3116 3114 3113 3112 3110 3109 3107 3105 3104 3103 3103 3102 3102 3102 3101 3102 3101 3102 3102 3100 3101 3098 3097 3097 3098 3099 3099 3099 3099
3125 3124 3124 3123 3123 3123 3123 3123 3122 3121 3121 3120 3119 3118 3117 3117 3116 3114 3112 3112 3109 3107 3106 3104 3102 3101 3101 3100 3100 3099 3099 3099 3099 3098 3097 3098 3098 3098 3095 3094 3093 3094 3095 3094 3093
3126 3126 3126 3125 3125 3124 3124 3123 3123 3122 3121 3119 3118 3118 3117 3117 3115 3113 3110 3108 3108 3106 3104 3102 3098 3099 3099 3099 3096 3096 3096 3096 3095 3096 3095 3093 3094 3091 3089 3089 3090 3089 3088 3088 3087
3129 3129 3128 3127 3126 3126 3125 3124 3123 3122 3121 3120 3118 3117 3116 3116 3113 3114 3112 3108 3106 3105 3103 3100 3098 3097 3097 3096 3095 3094 3093 3093 3091 3089 3090 3092 3087 3087 3084 3083 3083 3085 3084 3081 3081
3131 3130 3129 3129 3128 3127 3126 3125 3123 3122 3121 3119 3119 3118 3117 3117 3116 3113 3111 3109 3106 3105 3103 3100 3098 3095 3095 3094 3094 3092 3092 3090 3090 3086 3085 3087 3083 3079 3078 3076 3076 3076 3079 3077 3075
3132 3131 3130 3129 3128 3127 3126 3125 3123 3122 3121 3121 3120 3121 3119 3117 3116 3115 3112 3109 3107 3104 3103 3100 3097 3095 3094 3091 3096 3094 3092 3088 3086 3082 3080 3077 3077 3073 3070 3069 3068 3068 3069 3071 3070
3134 3132 3131 3130 3129 3127 3126 3125 3126 3125 3123 3121 3122 3120 3118 3117 3116 3114 3110 3108 3104 3104 3099 3097 3095 3093 3096 3098 3099 3096 3090 3084 3081 3082 3078 3074 3071 3068 3066 3062 3061 3059 3060 3061 3063
3135 3134 3132 3131 3129 3128 3126 3125 3124 3125 3122 3122 3123 3121 3118 3116 3116 3114 3109 3104 3100 3097 3098 3098 3095 3098 3098 3098 3095 3089 3082 3076 3070 3072 3074 3070 3068 3063 3061 3057 3055 3052 3051 3052 3054
3136 3134 3132 3130 3129 3127 3125 3124 3123 3123 3123 3122 3122 3121 3118 3116 3112 3109 3108 3104 3100 3098 3097 3097 3098 3096 3095 3088 3079 3077 3072 3069 3066 3062 3063 3064 3063 3059 3057 3055 3052 3049 3046 3044 3044
3136 3134 3132 3130 3130 3126 3125 3123 3122 3122 3123 3126 3122 3119 3121 3115 3115 3111 3108 3106 3103 3101 3098 3097 3097 3093 3088 3083 3077 3071 3068 3062 3056 3056 3054 3056 3054 3054 3052 3051 3048 3044 3041 3039 3037
3135 3133 3131 3129 3127 3126 3125 3123 3123 3123 3126 3128 3124 3122 3118 3120 3118 3114 3108 3105 3102 3101 3101 3097 3093 3088 3085 3081 3077 3071 3062 3055 3049 3045 3050 3048 3057 3056 3050 3046 3042 3039 3036 3034 3033
3134 3132 3130 3128 3126 3125 3124 3123 3124 3125 3128 3128 3126 3124 3120 3115 3110 3109 3108 3107 3103 3099 3098 3094 3091 3089 3084 3082 3076 3068 3057 3048 3043 3040 3045 3043 3051 3057 3052 3051 3045 3041 3038 3034 3031
3133 3131 3129 3128 3127 3125 3124 3124 3125 3124 3131 3129 3125 3121 3119 3116 3112 3109 3104 3100 3099 3096 3093 3093 3090 3089 3084 3078 3074 3067 3057 3050 3046 3043 3050 3048 3052 3061 3060 3054 3048 3043 3038 3034 3030
3132 3130 3129 3127 3126 3125 3125 3125 3124 3128 3128 3126 3124 3122 3120 3116 3112 3108 3105 3101 3101 3100 3096 3092 3089 3088 3087 3083 3078 3073 3069 3067 3057 3049 3052 3052 3061 3065 3060 3056 3050 3044 3039 3035 3030
3131 3129 3128 3127 3126 3126 3126 3125 3127 3128 3128 3126 3124 3122 3121 3120 3117 3111 3106 3105 3103 3101 3101 3096 3093 3092 3089 3085 3081 3075 3069 3066 3060 3057 3057 3063 3064 3061 3059 3054 3050 3044 3039 3034 3030
3130 3129 3128 3127 3127 3127 3127 3126 3127 3128 3127 3126 3124 3123 3121 3118 3116 3112 3108 3107 3106 3104 3101 3100 3095 3092 3088 3085 3083 3079 3074 3067 3064 3063 3063 3064 3066 3066 3058 3054 3050 3045 3040 3035 3030
3130 3129 3129 3128 3128 3128 3127 3127 3128 3128 3128 3127 3125 3123 3121 3118 3115 3113 3112 3109 3106 3105 3102 3099 3098 3094 3088 3085 3083 3079 3074 3072 3069 3068 3066 3066 3070 3067 3062 3057 3052 3047 3043 3038 3032
3130 3130 3130 3129 3130 3128 3128 3128 3129 3128 3128 3127 3126 3123 3121 3118 3115 3113 3112 3110 3107 3104 3101 3099 3097 3094 3090 3087 3086 3083 3079 3075 3072 3072 3070 3069 3070 3067 3063 3058 3053 3048 3043 3038 3034
3131 3131 3130 3130 3129 3129 3129 3129 3129 3129 3128 3126 3124 3122 3121 3119 3117 3113 3111 3109 3107 3104 3101 3099 3096 3092 3088 3089 3086 3082 3081 3078 3075 3073 3071 3071 3070 3066 3062 3058 3053 3047 3042 3037 3033
3132 3132 3132 3131 3130 3130 3130 3130 3129 3129 3128 3126 3125 3123 3121 3118 3116 3113 3111 3108 3105 3103 3102 3099 3097 3095 3093 3088 3085 3083 3080 3078 3076 3074 3072 3071 3067 3064 3060 3056 3051 3046 3041 3036 3032
3133 3132 3132 3131 3130 3131 3130 3130 3128 3128 3128 3126 3124 3122 3120 3117 3115 3112 3109 3107 3104 3102 3101 3098 3096 3093 3090 3086 3083 3081 3079 3077 3075 3073 3072 3069 3065 3062 3058 3055 3050 3045 3041 3035 3030
3134 3133 3131 3131 3131 3131 3130 3129 3128 3127 3127 3125 3123 3120 3118 3116 3114 3110 3107 3105 3104 3102 3100 3097 3094 3091 3087 3084 3081 3079 3077 3076 3074 3072 3069 3067 3064 3061 3057 3054 3050 3044 3039 3033 3028
3133 3133 3132 3131 3131 3131 3131 3130 3128 3126 3126 3124 3122 3120 3117 3115 3111 3108 3105 3103 3102 3100 3098 3095 3093 3089 3084 3082 3080 3078 3075 3074 3072 3070 3068 3064 3062 3059 3055 3052 3047 3042 3037 3031 3026
Wind_Speed
9 9 8 8 7 5 5 4 3 3 4 5 6 6 7 7 6 6 4 4 5 5 5 5 6 6 9 11 10 9 9 13 14 13 11 9 11 6 6 10 7 5 1 6 6
8 7 6 6 5 5 4 4 4 5 5 5 5 5 5 6 5 6 8 8 9 8 9 9 9 9 8 9 11 9 12 9 7 10 15 13 13 10 10 12 9 5 5 9 9
5 4 4 3 3 3 2 3 4 5 5 4 6 5 5 6 4 10 10 10 11 11 12 12 12 12 13 10 10 12 12 11 13 15 14 10 16 15 14 15 18 10 6 10 12
4 4 4 4 3 4 4 4 4 4 3 4 7 8 8 7 9 13 14 12 13 14 14 14 14 13 12 10 11 11 12 14 14 15 16 13 16 13 12 9 9 11 10 12 17
7 6 6 6 6 6 6 7 6 6 7 8 10 10 10 8 11 13 12 11 13 14 14 15 15 14 13 11 11 11 13 15 15 16 18 17 14 13 8 6 9 10 12 13 15
7 7 7 7 7 7 7 7 8 8 8 8 9 9 9 9 11 11 13 13 13 14 13 13 14 13 13 15 14 14 16 16 16 12 14 12 16 20 18 11 9 12 18 18 17
8 8 8 7 7 7 8 8 7 7 7 8 8 6 3 12 11 13 17 17 13 12 12 12 15 16 15 15 11 13 16 16 17 9 10 14 13 20 22 17 13 14 18 21 20
8 7 7 8 7 7 8 9 10 8 8 9 8 5 7 15 14 12 9 13 17 13 12 14 17 19 19 18 17 16 14 10 22 22 12 11 17 18 19 18 18 16 18 22 20
9 8 8 8 8 8 8 9 10 9 9 10 8 4 12 13 4 15 19 15 16 15 15 17 19 19 18 18 15 15 23 26 23 26 26 22 18 19 21 23 26 25 22 23 24
9 9 8 8 8 8 9 10 10 8 6 5 10 5 15 15 11 20 20 16 16 14 11 11 12 13 18 24 17 25 29 31 31 31 30 24 18 21 24 25 26 28 26 26 26
9 9 9 9 9 9 10 9 9 5 4 11 13 16 18 18 16 19 21 21 20 15 16 15 14 27 26 19 19 27 28 31 33 28 26 20 21 24 23 25 25 28 27 26 26
9 9 9 9 9 10 9 9 5 5 5 12 15 19 21 22 12 22 28 29 28 26 20 15 19 22 18 23 29 31 37 37 39 18 18 14 20 23 20 20 19 21 25 25 24
9 9 10 10 10 11 10 9 5 2 2 13 17 19 24 25 20 30 29 27 24 24 19 16 18 19 28 37 42 35 17 25 30 34 35 30 23 10 7 9 12 14 20 23 26
10 10 10 10 10 11 10 8 5 2 2 11 19 21 22 25 19 26 28 27 19 20 20 15 25 28 36 34 30 34 30 32 36 25 13 12 6 7 13 13 12 13 14 18 23
10 11 11 11 11 11 9 7 5 3 4 11 15 20 25 20 21 23 28 22 20 18 33 18 27 31 33 24 28 29 29 31 33 32 19 19 9 23 20 22 22 19 18 17 19
11 11 12 12 12 10 8 7 5 2 4 4 11 17 18 26 27 30 29 23 21 13 32 20 19 24 24 25 27 36 34 21 13 10 4 17 11 22 26 24 20 17 17 19 18
10 11 11 11 10 8 6 4 2 6 6 8 13 19 19 25 24 30 33 30 34 28 32 22 13 21 24 30 26 35 41 10 5 2 4 14 18 16 25 24 22 22 20 19 19
11 11 9 8 7 6 4 4 4 4 7 10 14 14 17 27 22 30 29 27 31 33 19 20 12 21 20 19 22 29 18 5 6 5 4 15 9 17 18 24 25 24 23 19 18
10 9 8 7 7 4 3 4 4 4 8 10 12 9 15 20 19 23 24 21 25 32 23 16 10 14 17 17 30 30 31 16 8 10 6 6 17 9 30 25 27 29 26 26 24
7 6 5 5 4 3 3 8 5 7 8 10 11 12 17 23 21 22 19 18 19 26 26 17 10 18 19 17 25 27 26 14 11 5 2 5 6 16 29 31 33 33 33 33 30
5 3 5 5 4 3 6 9 8 7 8 10 12 13 17 22 20 18 16 14 22 23 20 18 10 26 18 14 21 25 27 18 8 9 3 2 3 15 22 27 29 30 29 29 31
4 3 4 5 4 5 8 8 7 7 8 10 11 14 17 20 16 12 14 16 19 20 18 17 5 21 15 13 11 15 19 16 7 7 5 1 1 16 21 25 28 30 29 29 28
4 4 5 5 4 7 9 6 8 8 7 11 12 15 18 17 10 15 17 19 16 15 14 12 10 18 12 8 12 13 15 16 9 7 10 3 5 17 20 24 26 28 29 28 29
4 3 5 6 6 7 7 7 7 7 7 11 10 14 16 14 16 12 16 14 15 11 13 14 13 14 11 20 12 8 10 12 15 7 3 5 13 22 25 25 26 29 28 28 29
4 5 5 5 7 5 7 7 9 8 7 11 11 14 15 14 15 14 15 15 13 9 14 15 15 15 17 19 17 13 9 10 14 13 5 9 15 21 22 26 25 27 29 29 29
4 4 5 5 6 4 6 7 8 8 8 10 12 15 16 16 15 17 16 13 9 10 14 16 15 18 19 17 15 13 10 8 10 12 14 13 17 21 22 24 25 28 30 33 36
4 4 5 5 5 4 3 8 7 8 7 9 11 14 15 16 17 15 13 10 11 12 13 15 14 20 14 16 9 11 16 9 10 13 16 17 18 22 24 25 26 30 30 34 38
Wind_Direction
18 11 5 3 355 344 342 323 325 300 298 303 311 319 312 307 317 321 340 358 348 341 337 330 331 325 314 307 296 279 268 274 287 295 290 298 298 339 303 286 312 319 268 130 165
2 357 356 353 344 340 327 319 304 305 315 327 338 350 339 325 322 338 341 344 344 338 335 329 327 320 311 290 287 287 286 293 286 282 297 321 297 300 281 273 288 302 221 237 199
354 350 345 346 340 320 315 314 320 321 329 360 2 354 339 324 306 331 337 334 331 328 325 320 318 320 319 308 278 273 275 274 278 288 289 298 298 291 289 287 292 299 267 253 255
355 349 355 1 359 1 0 359 358 11 25 351 342 338 336 352 0 336 332 332 331 327 319 314 309 309 308 301 295 287 281 273 276 280 275 289 288 282 276 273 290 296 273 256 255
356 5 15 20 21 24 31 31 19 6 357 351 341 339 335 329 343 342 334 333 326 320 316 314 309 309 309 300 293 285 274 278 273 269 277 273 257 262 242 197 217 271 270 253 243
24 36 39 44 48 41 27 18 11 6 2 346 340 347 346 337 343 339 324 327 331 320 317 315 311 306 297 294 293 284 280 283 288 291 277 267 255 254 249 248 249 256 263 251 241
54 54 53 47 33 24 20 17 10 4 1 349 346 355 32 20 352 0 347 343 344 334 333 324 309 309 309 302 294 290 291 289 288 279 278 283 257 231 249 257 247 258 266 258 249
64 56 46 33 22 19 16 16 7 4 357 360 359 28 21 13 358 0 6 343 337 346 338 318 314 313 306 305 308 305 307 323 316 310 299 296 273 252 258 266 271 270 269 272 266
47 40 32 27 23 27 21 12 5 2 3 8 23 6 7 27 332 6 1 360 353 344 329 315 309 307 301 308 316 331 333 322 316 311 305 301 289 269 266 273 276 277 273 272 271
33 28 27 30 26 20 11 4 3 360 19 24 42 11 10 25 31 23 351 354 354 349 331 301 311 332 335 356 11 337 326 313 309 310 307 305 286 274 275 276 276 276 275 270 272
33 33 31 25 16 6 358 353 348 21 33 64 35 29 20 11 4 360 358 6 7 356 14 359 344 7 0 356 336 320 314 306 302 300 292 302 286 276 279 279 276 275 273 269 264
30 25 17 9 4 356 349 347 342 321 34 53 42 19 11 4 15 358 9 2 7 19 15 1 1 2 349 333 320 315 315 310 301 284 292 302 293 285 281 287 285 280 280 278 268
21 11 6 2 357 349 347 350 360 1 45 26 10 17 8 357 8 2 4 10 15 13 26 13 11 345 338 342 340 339 330 313 292 301 289 280 255 235 329 324 322 309 296 293 288
7 3 357 354 349 353 350 359 5 1 108 15 9 0 2 1 357 3 5 14 10 25 16 4 358 348 349 356 354 343 331 318 310 298 284 289 204 19 355 13 358 339 324 307 297
353 352 351 354 355 357 1 6 20 58 56 348 357 357 347 355 356 4 7 10 13 18 5 5 357 352 354 13 354 343 333 317 310 297 273 270 275 10 13 7 11 7 356 343 321
345 346 349 354 357 360 2 6 37 55 57 356 340 341 353 357 357 2 8 4 17 359 4 4 359 355 3 4 10 360 351 345 326 350 231 269 193 34 18 3 9 11 9 1 348
343 347 348 355 355 358 6 32 49 62 1 347 341 354 1 358 356 355 358 7 19 7 359 5 352 7 8 9 16 12 12 344 345 51 50 61 79 50 12 16 20 14 14 13 8
344 348 354 3 5 0 21 68 65 45 23 352 351 356 360 3 351 356 355 9 12 10 358 355 353 9 13 10 351 5 355 316 312 348 33 38 75 33 22 12 16 22 16 9 5
344 350 0 13 4 17 32 70 79 49 13 3 2 0 4 359 358 356 1 6 3 3 9 352 337 349 3 15 18 3 3 352 281 76 71 63 31 354 16 15 13 13 12 10 6
348 358 19 19 23 25 60 94 88 46 20 14 11 2 357 0 359 1 2 348 359 0 4 352 324 355 343 353 13 12 15 357 1 355 57 87 41 7 9 12 11 8 4 2 359
9 27 45 52 42 68 91 97 66 41 28 11 7 5 3 359 355 354 351 348 346 358 3 1 354 349 342 354 5 9 21 25 359 18 355 23 346 10 5 6 3 3 360 356 355
41 70 74 55 53 92 78 75 53 40 31 14 7 4 2 359 349 348 338 345 343 353 10 2 340 343 337 318 328 3 19 17 5 351 34 24 222 3 2 2 357 356 355 353 352
49 79 61 53 81 90 75 72 47 30 23 9 5 3 1 357 348 338 339 339 341 343 358 1 344 339 346 336 323 1 17 26 14 14 21 1 329 357 359 360 357 353 350 348 344
52 66 53 52 73 78 59 54 30 20 17 4 1 358 357 357 354 337 335 332 333 327 339 342 337 332 303 310 307 332 356 20 20 19 327 340 347 360 2 356 353 353 352 346 344
64 67 71 66 64 72 40 33 18 9 10 2 358 355 356 357 349 340 337 331 324 315 331 336 328 323 321 317 294 293 332 350 1 8 348 345 342 348 354 348 350 351 352 353 350
55 56 52 53 55 51 34 22 3 356 1 358 355 352 351 350 343 331 329 327 317 315 323 316 317 326 320 325 298 278 293 313 334 342 340 316 330 340 344 340 346 349 349 355 354
41 44 38 38 35 20 8 3 351 353 347 349 349 346 347 345 337 326 322 314 305 310 318 302 319 326 313 330 290 272 309 273 319 327 322 312 330 337 340 334 347 344 345 350 350